Hailey, ID

1:45 AM MST on December 09, 2019 (GMT -0700)
Friedman Memorial

Weather History for KSUN - November, 2019

Change the Weather History Date:

Thursday, November 14, 2019

  Actual Average Record
Temperature  
Mean Temperature 40 °F -  
Max Temperature 53 °F 43 °F 69 °F (1999)
Min Temperature 28 °F 23 °F 15 °F (2014)
Degree Days  
Heating Degree Days 24    
Moisture  
Dew Point 27 °F    
Average Humidity 70    
Maximum Humidity 87    
Minimum Humidity 38    
Precipitation  
Precipitation 0.00 in - - ()
Sea Level Pressure  
Sea Level Pressure 30.21 in    
Wind  
Wind Speed 8 mph ()    
Max Wind Speed 13 mph    
Max Gust Speed -    
Visibility 10.0 miles    
Events      
Averages and records for this station are not official NWS values.
T = Trace of Precipitation, MM = Missing Value Source: Averaged Metar Reports

Daily Weather History Graph

Daily Weather History Graph

Search for Another Location

Airport or City:

Astronomy

Nov. 14, 2019 Rise Set
Actual Time 7:29 AM MST 5:13 PM MST
Civil Twilight 6:58 AM MST 5:44 PM MST
Nautical Twilight 6:24 AM MST 6:18 PM MST
Astronomical Twilight 5:50 AM MST 6:52 PM MST
Moon 6:59 PM MST (11/14) 9:31 AM MST (11/14)
Length of Visible Light 10h 45m
Length of Day
9h 43m
Waning Gibbous, 95% of the Moon is Illuminated
Nov 14
Waning Gibbous
Nov 19
Last Quarter
Nov 26
New
Dec 3
First Quarter
Dec 11
Full

Hourly Weather History & Observations

Time (MST) Temp. Windchill Dew Point Humidity Pressure Visibility Wind Dir Wind Speed Gust Speed Precip Events Conditions
12:15 AM 32.0 °F 24.2 °F 28.4 °F 87% 30.21 in 10.0 mi NW 9.2 mph - N/A   Clear
12:35 AM 32.0 °F 24.8 °F 26.6 °F 80% 30.21 in 10.0 mi NW 8.1 mph - N/A   Clear
12:55 AM 32.0 °F 24.8 °F 26.6 °F 80% 30.22 in 10.0 mi NW 8.1 mph - N/A   Clear
1:15 AM 32.0 °F 24.8 °F 26.6 °F 80% 30.22 in 10.0 mi NW 8.1 mph - N/A   Clear
1:35 AM 32.0 °F 24.2 °F 26.6 °F 80% 30.22 in 10.0 mi NW 9.2 mph - N/A   Clear
1:55 AM 32.0 °F 24.8 °F 26.6 °F 80% 30.22 in 10.0 mi NW 8.1 mph - N/A   Clear
2:15 AM 30.2 °F 24.3 °F 26.6 °F 86% 30.22 in 10.0 mi NW 5.8 mph - N/A   Clear
2:35 AM 32.0 °F 23.6 °F 26.6 °F 80% 30.22 in 10.0 mi NW 10.4 mph - N/A   Clear
2:55 AM 32.0 °F 24.2 °F 26.6 °F 80% 30.22 in 10.0 mi NW 9.2 mph - N/A   Clear
3:15 AM 32.0 °F 22.5 °F 26.6 °F 80% 30.22 in 10.0 mi NW 12.7 mph - N/A   Clear
3:35 AM 32.0 °F 24.2 °F 26.6 °F 80% 30.22 in 10.0 mi NW 9.2 mph - N/A   Clear
4:15 AM 30.2 °F 21.9 °F 26.6 °F 86% 30.22 in 10.0 mi NW 9.2 mph - N/A   Clear
4:35 AM 30.2 °F 21.9 °F 26.6 °F 86% 30.22 in 10.0 mi NW 9.2 mph - N/A   Clear
4:55 AM 30.2 °F 20.8 °F 26.6 °F 86% 30.22 in 10.0 mi NW 11.5 mph - N/A   Clear
5:15 AM 30.2 °F 21.3 °F 26.6 °F 86% 30.23 in 10.0 mi NW 10.4 mph - N/A   Clear
5:35 AM 30.2 °F 21.9 °F 26.6 °F 86% 30.23 in 10.0 mi NW 9.2 mph - N/A   Clear
6:52 AM 28.4 °F 18.5 °F 24.8 °F 86% 30.22 in 10.0 mi NW 11.5 mph - N/A   Partly Cloudy
7:47 AM 28.4 °F 18.5 °F 24.8 °F 86% 30.23 in 10.0 mi NW 11.5 mph - N/A   Partly Cloudy
8:50 AM 32.0 °F 23.0 °F 24.8 °F 75% 30.25 in 10.0 mi NW 11.5 mph - N/A   Partly Cloudy
9:47 AM 37.4 °F 29.8 °F 26.6 °F 65% 30.26 in 10.0 mi NW 11.5 mph - N/A   Partly Cloudy
10:47 AM 42.8 °F 37.0 °F 26.6 °F 53% 30.24 in 10.0 mi NW 10.4 mph - N/A   Partly Cloudy
11:51 AM 48.2 °F - 28.4 °F 46% 30.22 in 10.0 mi WNW 5.8 mph - N/A   Partly Cloudy
12:55 PM 51.8 °F - 28.4 °F 41% 30.20 in 10.0 mi ESE 8.1 mph - N/A   Clear
1:51 PM 53.6 °F - 30.2 °F 41% 30.18 in 10.0 mi ESE 5.8 mph - N/A   Clear
2:52 PM 53.6 °F - 28.4 °F 38% 30.17 in 10.0 mi SE 6.9 mph - N/A   Clear
3:55 PM 51.8 °F - 30.2 °F 44% 30.17 in 10.0 mi SE 4.6 mph - N/A   Clear
4:55 PM 46.4 °F 43.5 °F 30.2 °F 53% 30.17 in 10.0 mi ESE 5.8 mph - N/A   Clear
5:55 PM 42.8 °F 41.1 °F 28.4 °F 57% 30.18 in 10.0 mi WSW 3.5 mph - N/A   Clear
6:55 PM 42.8 °F 38.0 °F 28.4 °F 57% 30.18 in 10.0 mi WNW 8.1 mph - N/A   Clear
7:55 PM 39.2 °F 34.2 °F 26.6 °F 61% 30.18 in 10.0 mi WNW 6.9 mph - N/A   Clear
8:55 PM 39.2 °F 33.6 °F 26.6 °F 61% 30.18 in 10.0 mi WNW 8.1 mph - N/A   Clear
9:47 PM 37.4 °F 32.1 °F 26.6 °F 65% 30.18 in 10.0 mi WNW 6.9 mph - N/A   Clear
10:35 PM 37.4 °F 30.8 °F 26.6 °F 65% 30.19 in 10.0 mi NW 9.2 mph - N/A   Clear
10:55 PM 37.4 °F 30.3 °F 26.6 °F 65% 30.19 in 10.0 mi NW 10.4 mph - N/A   Clear
11:15 PM 35.6 °F 28.6 °F 26.6 °F 70% 30.19 in 10.0 mi NW 9.2 mph - N/A   Clear
11:35 PM 37.4 °F 30.8 °F 26.6 °F 65% 30.19 in 10.0 mi NW 9.2 mph - N/A   Clear
11:55 PM 37.4 °F 29.8 °F 26.6 °F 65% 30.19 in 10.0 mi NW 11.5 mph - N/A   Clear